Location: Waco, TX
(31.5480°N, 97.1670°W)
Time: 03:08:54
(UTC-05:00)

ISS - Pass Details

Date: 16 September 2017
Orbit: 401 x 407 km, 51.6° (Epoch: 22 September)

Event Time Altitude Azimuth Distance (km) Brightness Sun altitude
Rises 23:23:24 0° 219° (SW) 2,305 - -45.9°
Reaches altitude 10° 23:25:28 10° 216° (SW) 1,450 - -46.2°
Maximum altitude 23:28:42 68° 133° (SE) 436 - -46.7°
Drops below altitude 10° 23:31:57 10° 50° (NE) 1,462 - -47.2°
Sets 23:34:03 0° 48° (NE) 2,325 - -47.5°
